Raleigh-Durham Airport, NC

9:35 PM EDT on April 23, 2018 (GMT -0400)
Raleigh-Durham International

Weather History for KRDU - November, 2012

Change the Weather History Date:

Saturday, November 3, 2012

  Actual Average Record
Temperature  
Mean Temperature 48 °F 56 °F  
Max Temperature 61 °F 68 °F 84 °F (1974)
Min Temperature 34 °F 44 °F 28 °F (1954)
Degree Days  
Heating Degree Days 17 10  
Month to date heating degree days 49 28  
Since 1 July heating degree days 226 217  
Cooling Degree Days 0 0  
Month to date cooling degree days 0 1  
Year to date cooling degree days 1871 1721  
Moisture  
Dew Point 31 °F    
Average Humidity 59    
Maximum Humidity 89    
Minimum Humidity 29    
Precipitation  
Precipitation 0.00 in 0.11 in 1.79 in (1929)
Month to date precipitation 0.00 0.32  
Year to date precipitation 37.29 37.47  
Sea Level Pressure  
Sea Level Pressure 30.05 in    
Wind  
Wind Speed 3 mph (NNW)    
Max Wind Speed 12 mph    
Max Gust Speed 18 mph    
Visibility 10 miles    
Events      
T = Trace of Precipitation, MM = Missing Value Source: NWS Daily Summary

Daily Weather History Graph

Daily Weather History Graph

Search for Another Location

Airport or City:

Astronomy

Nov. 03, 2012 Rise Set
Actual Time 7:39 AM EDT 6:17 PM EDT
Civil Twilight 7:13 AM EDT 6:43 PM EDT
Nautical Twilight 6:42 AM EDT 7:13 PM EDT
Astronomical Twilight 6:12 AM EDT 7:43 PM EDT
Moon 9:59 PM EDT (11/3) 11:39 AM EDT (11/3)
Length of Visible Light 11h 30m
Length of Day
10h 37m
Waning Gibbous, 80% of the Moon is Illuminated
Nov 3
Waning Gibbous
Nov 6
Last Quarter
Nov 13
New
Nov 20
First Quarter
Nov 28
Full

Hourly Weather History & Observations

Time (EDT) Temp. Windchill Dew Point Humidity Pressure Visibility Wind Dir Wind Speed Gust Speed Precip Events Conditions
12:51 AM 41.0 °F - 32.0 °F 70% 29.99 in 10.0 mi Calm Calm - N/A   Scattered Clouds
1:51 AM 37.9 °F - 32.0 °F 79% 29.99 in 10.0 mi Calm Calm - N/A   Partly Cloudy
2:51 AM 37.0 °F - 33.1 °F 86% 30.00 in 10.0 mi Calm Calm - N/A   Partly Cloudy
3:51 AM 34.0 °F - 30.0 °F 85% 29.99 in 10.0 mi Calm Calm - N/A   Partly Cloudy
4:51 AM 35.1 °F - 30.9 °F 85% 30.00 in 10.0 mi Calm Calm - N/A   Partly Cloudy
5:51 AM 39.0 °F - 28.9 °F 67% 30.02 in 10.0 mi Calm Calm - N/A   Partly Cloudy
6:51 AM 41.0 °F - 28.9 °F 62% 30.04 in 10.0 mi Calm Calm - N/A   Partly Cloudy
7:51 AM 37.0 °F - 28.0 °F 70% 30.08 in 10.0 mi Calm Calm - N/A   Scattered Clouds
8:51 AM 43.0 °F - 30.9 °F 62% 30.09 in 10.0 mi Calm Calm - N/A   Mostly Cloudy
9:51 AM 48.0 °F - 32.0 °F 54% 30.11 in 10.0 mi NNW 4.6 mph - N/A   Scattered Clouds
10:51 AM 50.0 °F - 30.0 °F 46% 30.11 in 10.0 mi Variable 6.9 mph - N/A   Scattered Clouds
11:51 AM 52.0 °F - 30.0 °F 43% 30.10 in 10.0 mi North 9.2 mph - N/A   Partly Cloudy
12:51 PM 54.0 °F - 30.0 °F 40% 30.08 in 10.0 mi Variable 4.6 mph - N/A   Partly Cloudy
1:51 PM 57.0 °F - 30.9 °F 37% 30.06 in 10.0 mi Variable 4.6 mph - N/A   Partly Cloudy
2:51 PM 59.0 °F - 30.0 °F 33% 30.05 in 10.0 mi WNW 9.2 mph - N/A   Partly Cloudy
3:51 PM 60.1 °F - 30.0 °F 32% 30.04 in 10.0 mi Variable 6.9 mph - N/A   Partly Cloudy
4:51 PM 60.1 °F - 28.9 °F 31% 30.03 in 10.0 mi NW 3.5 mph - N/A   Partly Cloudy
5:51 PM 57.0 °F - 30.9 °F 37% 30.04 in 10.0 mi West 3.5 mph - N/A   Partly Cloudy
6:51 PM 48.0 °F - 35.1 °F 61% 30.04 in 10.0 mi Calm Calm - N/A   Partly Cloudy
7:51 PM 48.9 °F - 35.1 °F 59% 30.05 in 10.0 mi Calm Calm - N/A   Partly Cloudy
8:51 PM 48.9 °F - 34.0 °F 56% 30.05 in 10.0 mi Calm Calm - N/A   Scattered Clouds
9:51 PM 46.0 °F - 34.0 °F 63% 30.06 in 10.0 mi Calm Calm - N/A   Scattered Clouds
10:51 PM 45.0 °F - 34.0 °F 65% 30.06 in 10.0 mi Calm Calm - N/A   Scattered Clouds
11:51 PM 45.0 °F 41.8 °F 34.0 °F 65% 30.09 in 10.0 mi NE 5.8 mph - N/A   Mostly Cloudy